{"data":{"norad_id":63850,"intl_designator":"2025-093Q","name":"STARLINK-33958","alt_names":[],"object_type":"PAYLOAD","status":"ACTIVE","operator":null,"country":"US","launch_date":"2025-05-07","launch_site_code":"AFETR","launch_vehicle":null,"mission":null,"orbit_class":"UNKNOWN","rcs_meters":null,"size_class":null,"mass_kg":null,"dimensions":null,"purposes":["comms"],"wikipedia_slug":null,"has_3d_model":false,"image_url":null,"decayed_at":null,"tle_current":{"epoch":"2026-09-19T17:23:21.859584Z","epoch_age_seconds":216900,"freshness":"STALE","line1":"1 63850U 25093Q   26262.72455856  .00015929  00000+0  58693-3 0  9990","line2":"2 63850  43.0014  62.4076 0001355 267.5018  92.5678 15.27591293 77481","mean_motion":15.27591293,"eccentricity":0.0001355,"inclination_deg":43.0014,"raan_deg":62.4076,"arg_perigee_deg":267.5018,"mean_anomaly_deg":92.5678,"bstar":0.00058693,"rev_number":7748,"period_min":94.266051829349,"perigee_km":482.08559480927,"apogee_km":483.94496707741,"semimajor_km":6861.1522809433,"source":"CELESTRAK","updated_at":"2026-09-21T09:00:35.134000Z"}}}